User: anonymous   Login
Location: Newark
(40.7060°N, 73.9980°W)
Time: 15:25:49
(UTC+00:00)
Language:

N. Korean satellite - Orbit

View from above orbital plane
View from above orbital plane
View from above satellite
View from above satellite

Ground track
Ground track

The orbit data is extracted from the following two-line orbital elements,

1 39026U 12072A   19347.85444741 +.00000560 +00000-0 +22611-4 0  9990
2 39026 097.2159 345.3265 0037448 185.2327 174.8527 15.28231543388745
Epoch (UTC): 13 December 2019 20:30:24
Eccentricity: 0.0037448
inclination: 97.2159°
perigee height: 455 km
apogee height: 507 km
right ascension of ascending node: 345.3265°
argument of perigee: 185.2327°
revolutions per day: 15.28231543
mean anomaly at epoch: 174.8527°
orbit number at epoch: 38874

The dashed part of the orbit path shows where the satellite is in the earth's shadow,  

DLR